EW3125 Weather Reports


time (UTC)temp
C
wind
direction
speed
KPH
gust
KPH
rain 1hr
cm
rain 24hr
cm
rain mn
cm
humidity
%
barometer
mb
20260510021540 25 134 1.6 3.2 0.00 0.00 0.00 72 1008.7
20260510020045 25 111 0.0 3.2 0.00 0.00 0.00 74 1008.7
20260510014536 25 111 0.0 3.2 0.00 0.00 0.00 72 1008.6
20260510013044 26 143 1.6 6.4 0.00 0.00 0.00 71 1008.3
20260510011551 26 115 1.6 8.0 0.00 0.00 0.00 70 1008.5
20260510010042 27 144 1.6 9.7 0.00 0.00 0.00 71 1008.3
20260510004548 28 116 6.4 16.1 0.00 0.00 0.00 71 1008.1
20260510003101 28 130 1.6 6.4 0.00 0.00 0.00 69 1008.1
20260510001540 28 124 3.2 9.7 0.00 0.00 0.00 68 1007.9
20260510000045 29 95 4.8 11.3 0.00 0.00 0.00 66 1007.8
20260509234558 30 80 3.2 9.7 0.00 0.00 0.00 66 1007.6
20260509233043 30 93 3.2 6.4 0.00 0.00 0.00 64 1007.6
20260509231551 30 80 1.6 4.8 0.00 0.00 0.00 65 1007.4
20260509230048 29 46 1.6 8.0 0.00 0.00 0.00 65 1007.5
20260509224542 28 49 0.0 4.8 0.00 0.00 0.00 66 1007.5
20260509223036 26 106 0.0 3.2 0.00 0.00 0.00 69 1007.5
20260509221544 26 311 3.2 3.2 0.00 0.00 0.00 67 1007.6
20260509220042 26 327 1.6 6.4 0.00 0.00 0.00 66 1007.6
20260509214540 26 318 3.2 8.0 0.00 0.00 0.00 65 1007.5
20260509213043 27 340 4.8 9.7 0.00 0.00 0.00 62 1007.6
20260509211541 27 336 11.3 20.9 0.00 0.00 0.00 59 1007.8
20260509210051 30 322 6.4 12.9 0.00 0.00 0.00 60 1007.9
20260509204544 31 198 8.0 11.3 0.00 0.00 0.00 56 1007.7
20260509203040 31 349 4.8 9.7 0.00 0.00 0.00 55 1008.3
20260509201542 31 350 3.2 6.4 0.00 0.00 0.00 58 1008.3
20260509200041 31 153 1.6 9.7 0.00 0.00 0.00 59 1008.8
20260509194541 31 223 6.4 16.1 0.00 0.00 0.00 60 1008.9
20260509193046 30 250 6.4 11.3 0.00 0.00 0.00 64 1009.0
20260509191542 30 188 8.0 12.9 0.00 0.00 0.00 68 1009.0
20260509190043 29 192 1.6 8.0 0.00 0.00 0.00 69 1009.4
20260509184541 29 159 4.8 11.3 0.00 0.00 0.00 67 1009.8
20260509183104 28 254 3.2 12.9 0.00 0.00 0.00 69 1010.0
20260509181600 29 228 3.2 11.3 0.00 0.00 0.00 69 1010.0
20260509180041 28 287 6.4 20.9 0.00 0.00 0.00 74 1010.2
20260509174543 28 286 6.4 14.5 0.00 0.00 0.00 75 1010.4
20260509173042 27 252 8.0 16.1 0.00 0.00 0.00 73 1010.6
20260509171544 27 298 4.8 12.9 0.00 0.00 0.00 75 1010.6
20260509170041 27 223 6.4 12.9 0.00 0.00 0.00 78 1010.6
20260509164541 27 232 4.8 12.9 0.00 0.00 0.00 79 1010.8
20260509163040 26 222 8.0 12.9 0.00 0.00 0.00 81 1010.7
20260509161541 26 262 3.2 9.7 0.00 0.00 0.00 81 1010.8
20260509160041 26 284 3.2 9.7 0.00 0.00 0.00 82 1010.7
20260509154546 25 267 1.6 9.7 0.00 0.00 0.00 86 1010.4
20260509153040 24 194 1.6 8.0 0.00 0.00 0.00 91 1010.4
20260509151542 23 0 1.6 3.2 0.00 0.00 0.00 94 1010.4
20260509150040 22 179 3.2 11.3 0.00 0.00 0.00 96 1010.5
20260509144542 22 158 4.8 8.0 0.00 0.00 0.00 96 1010.8
20260509143043 22 190 1.6 3.2 0.00 0.00 0.00 96 1010.9
20260509141541 22 0 0.0 3.2 0.00 0.00 0.00 96 1010.2
20260509140046 22 0 0.0 3.2 0.00 0.00 0.00 96 1010.4
20260509134541 22 111 1.6 3.2 0.00 0.00 0.00 96 1010.3
20260509133040 22 169 0.0 4.8 0.00 0.00 0.00 96 1010.6
20260509131540 22 134 1.6 3.2 0.00 0.00 0.00 96 1010.6
20260509130046 22 129 1.6 3.2 0.00 0.00 0.00 96 1010.4
20260509124542 22 94 1.6 4.8 0.00 0.00 0.00 96 1010.3
20260509123042 22 173 1.6 4.8 0.00 0.00 0.00 96 1010.4
20260509121541 22 9 0.0 3.2 0.00 0.00 0.00 96 1010.2
20260509120051 22 0 0.0 1.6 0.00 0.00 0.00 96 1010.4
20260509114541 22 165 1.6 3.2 0.00 0.00 0.00 96 1010.1
20260509113042 22 24 3.2 8.0 0.00 0.00 0.00 96 1010.4
20260509111540 22 11 4.8 12.9 0.00 0.00 0.00 96 1010.1
20260509110041 22 37 6.4 16.1 0.00 0.00 0.00 96 1010.4
20260509104545 22 5 4.8 8.0 0.00 0.00 0.00 96 1010.3
20260509103042 22 0 0.0 3.2 0.00 0.00 0.00 96 1010.0
20260509101551 22 123 1.6 3.2 0.00 0.00 0.00 96 1010.1
20260509100041 22 52 0.0 0.0 0.00 0.00 0.00 96 1010.1
20260509094541 22 32 1.6 3.2 0.00 0.00 0.00 95 1009.8
20260509093052 22 61 0.0 3.2 0.00 0.00 0.00 95 1009.7
20260509091540 22 36 1.6 3.2 0.00 0.00 0.00 95 1009.7
20260509090043 22 51 0.0 3.2 0.00 0.00 0.00 95 1009.5
20260509084550 22 71 1.6 6.4 0.00 0.00 0.00 95 1009.6
20260509083040 22 31 1.6 4.8 0.00 0.00 0.00 95 1009.9
20260509081543 22 142 0.0 3.2 0.00 0.00 0.00 94 1009.8
20260509080050 22 142 0.0 3.2 0.00 0.00 0.00 94 1009.5
20260509074543 22 183 1.6 6.4 0.00 0.00 0.00 94 1009.7
20260509073042 22 193 1.6 8.0 0.00 0.00 0.00 94 1009.8
20260509071541 22 167 4.8 9.7 0.00 0.00 0.00 94 1009.6
20260509070045 22 163 3.2 8.0 0.00 0.00 0.00 94 1009.8
20260509064541 22 159 3.2 12.9 0.00 0.00 0.00 94 1009.6
20260509063041 22 144 4.8 9.7 0.00 0.00 0.00 93 1009.7
20260509061545 22 152 4.8 12.9 0.00 0.00 0.00 93 1009.5
20260509060048 22 121 4.8 11.3 0.00 0.00 0.00 93 1009.5
20260509054542 22 161 4.8 12.9 0.00 0.00 0.00 93 1009.6
20260509053042 22 173 9.7 16.1 0.00 0.00 0.00 93 1009.7
20260509051541 22 163 4.8 12.9 0.00 0.00 0.00 93 1009.4
20260509050045 22 142 4.8 11.3 0.00 0.00 0.00 93 1009.3
20260509044540 22 151 3.2 8.0 0.00 0.00 0.00 92 1009.6
20260509043042 22 130 3.2 9.7 0.00 0.00 0.00 92 1009.7
20260509041541 22 120 1.6 3.2 0.00 0.00 0.00 91 1009.9
20260509040043 22 136 1.6 3.2 0.00 0.00 0.00 91 1009.8
20260509034544 22 115 1.6 4.8 0.00 0.00 0.00 91 1009.6
20260509033041 22 155 1.6 3.2 0.00 0.00 0.00 90 1009.5
20260509031546 22 0 0.0 3.2 0.00 0.00 0.00 90 1009.5
20260509030042 22 0 0.0 0.0 0.00 0.00 0.00 89 1009.4
20260509024542 22 0 0.0 3.2 0.00 0.00 0.00 88 1009.0
20260509023042 23 138 0.0 3.2 0.00 0.00 0.00 87 1008.7